CW9790 Weather Reports


Display with metric or nautical units.
time (UTC)temp
F
wind
direction
speed
MPH
gust
MPH
rain 1hr
in
rain 24hr
in
rain mn
in
humidity
%
barometer
mb
20260502181039 68 23 4.0 11.0 0.00 0.02 0.01 55 1020.7
20260502164017 67 23 4.0 10.0 0.00 0.10 0.01 66 1021.6
20260502163017 65 23 4.0 10.0 0.00 0.12 0.01 65 1021.4
20260502162038 65 23 4.0 10.0 0.00 0.13 0.01 64 1021.6
20260502161017 64 45 3.0 8.0 0.00 0.13 0.01 64 1021.6
20260502152017 61 23 3.0 9.0 0.00 0.13 0.01 69 1021.5
20260502151018 61 23 4.0 9.0 0.00 0.13 0.01 69 1021.4
20260502123037 47 0 3.0 7.0 0.00 0.22 0.01 92 1018.5
20260502122016 47 0 3.0 7.0 0.00 0.22 0.01 92 1018.3
20260502121037 47 338 3.0 9.0 0.00 0.23 0.01 93 1018.3
20260502115016 46 338 2.0 6.0 0.00 0.23 0.01 93 1018.1
20260502114016 46 338 2.0 4.0 0.00 0.23 0.01 93 1017.8
20260502113016 47 0 2.0 5.0 0.00 0.23 0.01 93 1017.8
20260502112016 47 338 2.0 5.0 0.00 0.23 0.01 93 1017.7
20260502111016 46 338 2.0 5.0 0.00 0.23 0.01 93 1017.6
20260502110017 46 338 2.0 5.0 0.00 0.23 0.01 93 1017.5
20260502105017 46 315 1.0 3.0 0.00 0.23 0.01 94 1017.6
20260502104016 46 0.0 3.0 0.00 0.23 0.01 94 1017.7
20260502103037 47 338 1.0 6.0 0.00 0.23 0.01 94 1017.5
20260502102016 47 338 1.0 3.0 0.00 0.24 0.01 94 1017.3
20260502101017 47 0.0 2.0 0.00 0.25 0.01 94 1017.3
20260502091017 47 23 2.0 4.0 0.00 0.40 0.01 93 1016.6
20260502071017 49 23 3.0 5.0 0.00 0.40 0.00 93 1016.0
20260502070017 49 23 3.0 7.0 0.00 0.40 0.00 93 1015.9
20260502065037 49 0 3.0 7.0 0.00 0.40 0.00 93 1015.9
20260502064040 49 0 3.0 7.0 0.00 0.40 0.00 93 1016.2
20260502063017 49 0 3.0 5.0 0.00 0.40 0.00 93 1016.0
20260502062017 49 315 2.0 5.0 0.00 0.40 0.00 93 1016.3
20260502061019 49 23 2.0 4.0 0.00 0.40 0.00 93 1016.2
20260502060017 49 23 2.0 6.0 0.00 0.40 0.00 93 1016.1
20260502055018 49 23 2.0 5.0 0.00 0.41 0.00 92 1016.2
20260502054038 49 23 2.0 6.0 0.00 0.41 0.00 93 1016.2
20260502053017 49 23 2.0 5.0 0.00 0.41 0.00 93 1016.2
20260502052018 49 23 3.0 7.0 0.00 0.41 0.00 93 1015.9
20260502051038 49 23 3.0 9.0 0.00 0.41 0.00 93 1015.7
20260502050017 49 23 4.0 8.0 0.00 0.41 0.41 93 1015.7
20260502045016 49 23 3.0 7.0 0.00 0.41 0.41 93 1015.6
20260502044018 49 0 3.0 7.0 0.00 0.41 0.41 93 1015.5
20260502043017 49 23 3.0 7.0 0.00 0.41 0.41 93 1015.4
20260502042037 50 0 2.0 6.0 0.00 0.42 0.41 93 1015.8
20260502041016 50 45 2.0 5.0 0.00 0.42 0.41 93 1015.9
20260502040017 50 0 3.0 5.0 0.00 0.42 0.41 93 1015.6
20260502035016 50 23 3.0 6.0 0.00 0.42 0.41 93 1015.7
20260502034016 51 0 2.0 6.0 0.00 0.42 0.41 93 1015.5
20260502033018 51 0 2.0 4.0 0.00 0.42 0.41 93 1015.3
20260502032016 51 23 2.0 6.0 0.00 0.43 0.41 93 1015.4
20260502031017 51 23 2.0 5.0 0.00 0.44 0.41 92 1015.2
20260502030036 51 23 2.0 4.0 0.00 0.45 0.41 92 1014.9
20260502025016 52 23 3.0 9.0 0.00 0.46 0.41 92 1014.8
20260502024017 52 23 3.0 8.0 0.00 0.46 0.41 92 1014.8
20260502023016 52 23 4.0 9.0 0.00 0.46 0.41 92 1014.6
20260502022037 51 23 4.0 11.0 0.00 0.47 0.41 92 1014.4
20260502021036 51 23 4.0 11.0 0.00 0.51 0.41 91 1014.2
20260502020036 51 23 4.0 7.0 0.00 0.53 0.41 91 1014.0
20260502015016 51 0 5.0 10.0 0.00 0.55 0.41 90 1013.7
20260502014016 52 23 5.0 13.0 0.00 0.57 0.41 90 1013.7
20260502013016 52 23 6.0 14.0 0.00 0.64 0.41 90 1013.4
20260502012016 52 23 5.0 14.0 0.00 0.68 0.41 90 1013.1
20260502011016 52 45 6.0 15.0 0.00 0.72 0.41 90 1013.1
20260502010017 52 23 6.0 15.0 0.00 0.72 0.41 90 1013.0
20260502005016 52 23 8.0 16.0 0.00 0.72 0.41 90 1012.8
20260502004037 52 23 8.0 16.0 0.00 0.72 0.41 91 1012.5
20260502003016 52 0 7.0 16.0 0.00 0.72 0.41 91 1012.4
20260502002016 53 23 9.0 19.0 0.00 0.72 0.41 91 1012.4
20260502001036 53 23 8.0 18.0 0.00 0.72 0.41 92 1012.0
20260502000016 53 0 9.0 23.0 0.00 0.72 0.41 92 1011.6
20260501235016 54 0 8.0 19.0 0.00 0.72 0.41 92 1011.6
20260501234016 54 23 7.0 15.0 0.00 0.72 0.41 93 1011.4
20260501233057 54 0 9.0 18.0 0.00 0.72 0.41 93 1011.1
20260501232016 54 23 6.0 15.0 0.00 0.72 0.41 93 1010.9
20260501231016 54 23 7.0 15.0 0.00 0.72 0.41 94 1010.6
20260501230018 54 0 8.0 16.0 0.00 0.72 0.41 94 1010.7
20260501225017 54 0 7.0 18.0 0.00 0.72 0.41 94 1010.6
20260501224018 54 23 7.0 18.0 0.00 0.72 0.41 94 1010.3
20260501223018 54 0 5.0 14.0 0.00 0.72 0.41 95 1010.6
20260501222019 55 0 7.0 21.0 0.00 0.72 0.41 95 1010.4
20260501221037 54 23 6.0 13.0 0.00 0.72 0.41 95 1010.6
20260501220017 54 0 6.0 15.0 0.00 0.72 0.41 95 1010.7
20260501215017 54 23 7.0 14.0 0.00 0.72 0.41 95 1010.8
20260501214018 55 0 6.0 20.0 0.00 0.72 0.41 95 1010.7
20260501213017 55 23 6.0 15.0 0.00 0.72 0.41 95 1010.7
20260501212017 55 23 7.0 13.0 0.00 0.72 0.41 95 1010.8
20260501211017 55 0 6.0 13.0 0.00 0.72 0.41 95 1010.6
20260501210017 55 0 6.0 16.0 0.00 0.72 0.41 95 1010.7
20260501205018 55 0 6.0 14.0 0.00 0.72 0.41 95 1010.8
20260501204017 55 0 6.0 15.0 0.00 0.72 0.41 95 1010.9
20260501203017 55 0 5.0 13.0 0.00 0.72 0.41 95 1011.1
20260501202017 56 0 5.0 12.0 0.00 0.72 0.41 95 1011.4
20260501201017 56 0 5.0 13.0 0.00 0.72 0.41 95 1011.2
20260501200017 56 0 4.0 11.0 0.00 0.72 0.41 95 1011.0
20260501195059 56 0 4.0 11.0 0.00 0.72 0.41 95 1011.2
20260501194018 57 0 4.0 10.0 0.00 0.72 0.41 95 1010.9
20260501193017 57 0 5.0 10.0 0.00 0.72 0.41 95 1010.7
20260501192038 57 0 5.0 13.0 0.00 0.72 0.41 95 1010.3
20260501191017 57 23 5.0 14.0 0.01 0.72 0.41 96 1010.2
20260501190017 57 0 6.0 12.0 0.01 0.72 0.41 95 1010.1
20260501185017 58 23 5.0 12.0 0.01 0.72 0.41 96 1009.9
20260501184017 58 0 6.0 12.0 0.01 0.72 0.41 96 1009.8
20260501183017 58 0 5.0 12.0 0.01 0.72 0.41 95 1009.6
20260501182017 59 23 4.0 12.0 0.01 0.72 0.41 96 1010.0